Location: L�gaud
(45.7115°N, 1.7775°E)
Time: 16:21:46
(UTC+00:00)

Cosmos 2242 Rocket - Pass Details

Date: 03 March 2021
Orbit: 617 x 652 km, 82.5° (Epoch: 11 April)

Event Time Altitude Azimuth Distance (km) Brightness Sun altitude
Rises 19:05:37 0° 352° (N) 2,959 7.2 -15.3°
Reaches altitude 10° 19:07:54 10° 354° (N) 2,039 6.4 -15.7°
Maximum altitude 19:12:26 77° 81° (E) 656 3.5 -16.5°
Drops below altitude 10° 19:16:52 10° 167° (SSE) 2,001 6.0 -17.2°
Sets 19:19:05 0° 169° (S) 2,898 6.8 -17.6°
